Year,Month,Day,Hour,Minute,Value (Times are PST for temperature in C)
2022,02,01,00,00,-37.40
2022,02,01,00,01,-37.40
2022,02,01,00,02,-37.50
2022,02,01,00,03,-37.50
2022,02,01,00,04,-37.50
2022,02,01,00,05,-37.60
2022,02,01,00,06,-37.60
2022,02,01,00,07,-37.60
2022,02,01,00,08,-37.60
2022,02,01,00,09,-37.60
2022,02,01,00,10,-37.70
2022,02,01,00,11,-37.70
2022,02,01,00,12,-37.70
2022,02,01,00,13,-37.80
2022,02,01,00,14,-37.90
2022,02,01,00,15,-38.00
2022,02,01,00,16,-38.10
2022,02,01,00,17,-38.10
2022,02,01,00,18,-38.20
2022,02,01,00,19,-38.20
2022,02,01,00,20,-38.20
2022,02,01,00,21,-38.20
2022,02,01,00,22,-38.20
2022,02,01,00,23,-38.20
2022,02,01,00,24,-38.20
2022,02,01,00,25,-38.20
2022,02,01,00,26,-38.20
2022,02,01,00,27,-38.20
2022,02,01,00,28,-38.10
2022,02,01,00,29,-38.10
2022,02,01,00,30,-38.10
2022,02,01,00,31,-38.10
2022,02,01,00,32,-38.10
2022,02,01,00,33,-38.10
2022,02,01,00,34,-38.10
2022,02,01,00,35,-38.00
2022,02,01,00,36,-38.00
2022,02,01,00,37,-37.90
2022,02,01,00,38,-37.90
2022,02,01,00,39,-37.90
2022,02,01,00,40,-37.90
2022,02,01,00,41,-37.90
2022,02,01,00,42,-37.90
2022,02,01,00,43,-37.90
2022,02,01,00,44,-37.90
2022,02,01,00,45,-37.90
2022,02,01,00,46,-37.90
2022,02,01,00,47,-37.90
2022,02,01,00,48,-37.90
2022,02,01,00,49,-37.90
2022,02,01,00,50,-38.00
2022,02,01,00,51,-38.10
2022,02,01,00,52,-38.20
2022,02,01,00,53,-38.20
2022,02,01,00,54,-38.30
2022,02,01,00,55,-38.30
2022,02,01,00,56,-38.40
2022,02,01,00,57,-38.40
2022,02,01,00,58,-38.40
2022,02,01,00,59,-38.30
2022,02,01,01,00,-38.30
2022,02,01,01,01,-38.30
2022,02,01,01,02,-38.30
2022,02,01,01,03,-38.30
2022,02,01,01,04,-38.30
2022,02,01,01,05,-38.30
2022,02,01,01,06,-38.30
2022,02,01,01,07,-38.30
2022,02,01,01,08,-38.20
2022,02,01,01,09,-38.20
2022,02,01,01,10,-38.20
2022,02,01,01,11,-38.10
2022,02,01,01,12,-38.10
2022,02,01,01,13,-38.10
2022,02,01,01,14,-38.10
2022,02,01,01,15,-38.10
2022,02,01,01,16,-38.10
2022,02,01,01,17,-38.10
2022,02,01,01,18,-38.10
2022,02,01,01,19,-38.10
2022,02,01,01,20,-38.10
2022,02,01,01,21,-38.10
2022,02,01,01,22,-38.10
2022,02,01,01,23,-38.10
2022,02,01,01,24,-38.10
2022,02,01,01,25,-38.10
2022,02,01,01,26,-38.10
2022,02,01,01,27,-38.00
2022,02,01,01,28,-38.00
2022,02,01,01,29,-38.00
2022,02,01,01,30,-38.00
2022,02,01,01,31,-38.10
2022,02,01,01,32,-38.10
2022,02,01,01,33,-38.10
2022,02,01,01,34,-38.10
2022,02,01,01,35,-38.20
2022,02,01,01,36,-38.20
2022,02,01,01,37,-38.20
2022,02,01,01,38,-38.30
2022,02,01,01,39,-38.30
2022,02,01,01,40,-38.30
2022,02,01,01,41,-38.30
2022,02,01,01,42,-38.30
2022,02,01,01,43,-38.30
2022,02,01,01,44,-38.40
2022,02,01,01,45,-38.40
2022,02,01,01,46,-38.40
2022,02,01,01,47,-38.40
2022,02,01,01,48,-38.40
2022,02,01,01,49,-38.40
2022,02,01,01,50,-38.40
2022,02,01,01,51,-38.40
2022,02,01,01,52,-38.40
2022,02,01,01,53,-38.40
2022,02,01,01,54,-38.40
2022,02,01,01,55,-38.40
2022,02,01,01,56,-38.40
2022,02,01,01,57,-38.40
2022,02,01,03,22,-38.10
2022,02,01,03,23,-38.10
2022,02,01,03,24,-38.20
2022,02,01,03,25,-38.20
2022,02,01,03,26,-38.20
2022,02,01,03,27,-38.20
2022,02,01,03,28,-38.20
2022,02,01,03,29,-38.20
2022,02,01,03,30,-38.20
2022,02,01,03,31,-38.20
2022,02,01,03,32,-38.20
2022,02,01,03,33,-38.20
2022,02,01,03,34,-38.20
2022,02,01,03,35,-38.20
2022,02,01,03,36,-38.20
2022,02,01,03,37,-38.20
2022,02,01,05,10,-38.60
2022,02,01,05,11,-38.60
2022,02,01,05,12,-38.60
2022,02,01,05,13,-38.60
2022,02,01,05,14,-38.60
2022,02,01,05,15,-38.60
2022,02,01,05,16,-38.60
2022,02,01,05,17,-38.60
2022,02,01,05,18,-38.60
2022,02,01,05,19,-38.60
2022,02,01,05,20,-38.60
2022,02,01,05,36,-38.80
2022,02,01,05,37,-38.80
2022,02,01,05,38,-38.80
2022,02,01,05,39,-38.80
2022,02,01,05,40,-38.80
2022,02,01,05,41,-38.80
2022,02,01,05,42,-38.80
2022,02,01,05,43,-38.80
2022,02,01,05,44,-38.80
2022,02,01,05,45,-38.80
2022,02,01,05,46,-38.80
2022,02,01,06,02,-38.80
2022,02,01,06,03,-38.80
2022,02,01,06,04,-38.80
2022,02,01,06,05,-38.80
2022,02,01,06,06,-38.80
2022,02,01,06,07,-38.80
2022,02,01,06,08,-38.80
2022,02,01,06,09,-38.90
2022,02,01,06,10,-39.00
2022,02,01,06,11,-39.00
2022,02,01,06,12,-39.00
2022,02,01,06,13,-39.00
2022,02,01,06,14,-39.00
2022,02,01,06,15,-39.00
2022,02,01,06,16,-39.00
2022,02,01,06,17,-39.00
2022,02,01,06,18,-39.00
2022,02,01,06,19,-39.00
2022,02,01,06,20,-39.00
2022,02,01,06,21,-39.00
2022,02,01,06,22,-39.00
2022,02,01,06,23,-39.00
2022,02,01,10,13,-39.00
2022,02,01,10,14,-39.10
2022,02,01,10,15,-39.10
2022,02,01,10,16,-39.10
2022,02,01,10,17,-39.10
2022,02,01,10,18,-39.10
2022,02,01,10,19,-39.10
2022,02,01,10,20,-39.10
2022,02,01,10,21,-39.10
2022,02,01,10,22,-39.10
2022,02,01,10,23,-39.10
2022,02,01,11,48,-39.60
2022,02,01,11,49,-39.60
2022,02,01,11,50,-39.60
2022,02,01,11,51,-39.60
2022,02,01,11,52,-39.60
2022,02,01,11,53,-39.60
2022,02,01,11,54,-39.60
2022,02,01,11,55,-39.60
2022,02,01,11,56,-39.60
2022,02,01,11,57,-39.60
2022,02,01,11,58,-39.60
2022,02,01,11,59,-39.60
2022,02,01,12,00,-39.60
2022,02,01,12,01,-39.60
2022,02,01,12,02,-39.60
2022,02,01,12,03,-39.60
2022,02,01,12,04,-39.60
2022,02,01,12,05,-39.60
2022,02,01,12,06,-39.60
2022,02,01,12,07,-39.60
2022,02,01,12,08,-39.60
2022,02,01,12,09,-39.50
2022,02,01,12,10,-39.50
2022,02,01,12,11,-39.40
2022,02,01,12,12,-39.40
2022,02,01,12,13,-39.30
2022,02,01,12,14,-39.30
2022,02,01,12,15,-39.20
2022,02,01,12,16,-39.20
2022,02,01,12,17,-39.10
2022,02,01,12,18,-39.10
2022,02,01,12,19,-39.10
2022,02,01,12,20,-39.10
2022,02,01,12,21,-39.10
2022,02,01,12,22,-39.10
2022,02,01,12,23,-39.10
2022,02,01,12,24,-39.10
2022,02,01,12,25,-39.10
2022,02,01,12,26,-39.10
2022,02,01,12,27,-39.10
2022,02,01,12,28,-39.00
2022,02,01,12,29,-38.60
2022,02,01,12,30,-38.50
2022,02,01,12,31,-38.50
2022,02,01,12,32,-38.40
2022,02,01,12,33,-38.40
2022,02,01,12,34,-38.40
2022,02,01,12,35,-38.40
2022,02,01,12,36,-38.30
2022,02,01,12,37,-38.30
2022,02,01,12,38,-38.30
2022,02,01,12,39,-38.30
2022,02,01,12,40,-38.30
2022,02,01,12,41,-38.20
2022,02,01,12,42,-38.20
2022,02,01,12,43,-38.20
2022,02,01,12,44,-38.20
2022,02,01,12,45,-38.20
2022,02,01,12,46,-38.10
2022,02,01,12,47,-38.10
2022,02,01,12,48,-38.10
2022,02,01,12,49,-38.10
2022,02,01,12,50,-38.10
2022,02,01,12,51,-38.10
2022,02,01,12,52,-38.00
2022,02,01,12,53,-38.00
2022,02,01,12,54,-38.00
2022,02,01,12,55,-37.90
2022,02,01,12,56,-37.90
2022,02,01,12,57,-37.90
2022,02,01,12,58,-37.90
2022,02,01,12,59,-37.90
2022,02,01,13,00,-37.90
2022,02,01,13,01,-37.90
2022,02,01,13,02,-37.90
2022,02,01,13,03,-37.90
2022,02,01,13,04,-37.80
2022,02,01,13,05,-37.80
2022,02,01,13,06,-37.80
2022,02,01,13,07,-37.80
2022,02,01,13,08,-37.80
2022,02,01,13,09,-37.70
2022,02,01,13,10,-37.70
2022,02,01,13,11,-37.70
2022,02,01,13,12,-37.70
2022,02,01,13,13,-37.60
2022,02,01,13,14,-37.60
2022,02,01,13,15,-37.50
2022,02,01,13,16,-37.50
2022,02,01,13,17,-37.50
2022,02,01,13,18,-37.50
2022,02,01,13,19,-37.50
2022,02,01,13,20,-37.50
2022,02,01,13,21,-37.60
2022,02,01,13,22,-37.60
2022,02,01,13,23,-37.60
2022,02,01,13,24,-37.60
2022,02,01,13,25,-37.60
2022,02,01,13,26,-37.60
2022,02,01,13,27,-37.60
2022,02,01,13,28,-37.50
2022,02,01,13,29,-37.50
2022,02,01,13,30,-37.50
2022,02,01,13,31,-37.40
2022,02,01,13,32,-37.40
2022,02,01,13,33,-37.30
2022,02,01,13,34,-37.30
2022,02,01,13,35,-37.30
2022,02,01,13,36,-37.40
2022,02,01,13,37,-37.40
2022,02,01,13,38,-37.40
2022,02,01,13,39,-37.40
2022,02,01,13,40,-37.40
2022,02,01,13,41,-37.40
2022,02,01,13,42,-37.30
2022,02,01,13,43,-37.30
2022,02,01,13,44,-37.30
2022,02,01,13,45,-37.30
2022,02,01,13,46,-37.20
2022,02,01,13,47,-37.20
2022,02,01,13,48,-37.20
2022,02,01,13,49,-37.10
2022,02,01,13,50,-37.10
2022,02,01,13,51,-37.10
2022,02,01,13,52,-37.00
2022,02,01,13,53,-37.00
2022,02,01,13,54,-37.00
2022,02,01,13,55,-36.90
2022,02,01,13,56,-36.90
2022,02,01,13,57,-36.90
2022,02,01,13,58,-36.90
2022,02,01,13,59,-36.80
2022,02,01,14,00,-36.80
2022,02,01,14,01,-36.80
2022,02,01,14,02,-36.70
2022,02,01,14,03,-36.70
2022,02,01,14,04,-36.60
2022,02,01,14,05,-36.60
2022,02,01,14,06,-36.50
2022,02,01,14,07,-36.50
2022,02,01,14,08,-36.40
2022,02,01,14,09,-36.40
2022,02,01,14,10,-36.30
2022,02,01,14,11,-36.30
2022,02,01,14,12,-36.20
2022,02,01,14,13,-36.20
2022,02,01,14,14,-36.10
2022,02,01,14,15,-36.00
2022,02,01,14,16,-36.00
2022,02,01,14,17,-35.90
2022,02,01,14,18,-35.90
2022,02,01,14,19,-35.90
2022,02,01,14,20,-35.90
2022,02,01,14,21,-35.90
2022,02,01,14,22,-35.90
2022,02,01,14,23,-36.10
2022,02,01,14,24,-36.20
2022,02,01,14,25,-36.40
2022,02,01,14,26,-36.60
2022,02,01,14,27,-36.70
2022,02,01,14,28,-36.80
2022,02,01,14,29,-36.90
2022,02,01,14,30,-37.00
2022,02,01,14,31,-37.00
2022,02,01,14,32,-37.10
2022,02,01,14,33,-37.10
2022,02,01,14,34,-37.20
2022,02,01,14,35,-37.20
2022,02,01,14,36,-37.20
2022,02,01,14,37,-37.20
2022,02,01,14,38,-37.10
2022,02,01,14,39,-37.10
2022,02,01,14,40,-37.10
2022,02,01,14,41,-37.10
2022,02,01,14,42,-37.10
2022,02,01,14,43,-37.00
2022,02,01,14,44,-37.00
2022,02,01,14,45,-37.00
2022,02,01,14,46,-37.00
2022,02,01,14,47,-37.10
2022,02,01,14,48,-37.10
2022,02,01,14,49,-37.00
2022,02,01,14,50,-37.00
2022,02,01,14,51,-37.00
2022,02,01,14,52,-37.00
2022,02,01,14,53,-36.90
2022,02,01,14,54,-36.90
2022,02,01,14,55,-36.80
2022,02,01,14,56,-36.80
2022,02,01,14,57,-36.80
2022,02,01,14,58,-36.70
2022,02,01,14,59,-36.70
2022,02,01,15,00,-36.70
2022,02,01,15,01,-36.60
2022,02,01,15,02,-36.50
2022,02,01,15,03,-36.50
2022,02,01,15,04,-36.40
2022,02,01,15,05,-36.40
2022,02,01,15,06,-36.40
2022,02,01,15,07,-36.30
2022,02,01,15,08,-36.30
2022,02,01,15,09,-36.40
2022,02,01,15,10,-36.40
2022,02,01,15,11,-36.40
2022,02,01,15,12,-36.40
2022,02,01,15,13,-36.40
2022,02,01,15,14,-36.50
2022,02,01,15,15,-36.50
2022,02,01,15,16,-36.50
2022,02,01,15,17,-36.50
2022,02,01,15,18,-36.60
2022,02,01,15,19,-36.60
2022,02,01,15,20,-36.60
2022,02,01,15,21,-36.60
2022,02,01,15,22,-36.70
2022,02,01,15,23,-36.70
2022,02,01,15,24,-36.70
2022,02,01,15,25,-36.70
2022,02,01,15,26,-36.80
2022,02,01,15,27,-36.80
2022,02,01,15,28,-36.90
2022,02,01,15,29,-37.00
2022,02,01,15,30,-37.00
2022,02,01,15,31,-37.10
2022,02,01,15,32,-37.10
2022,02,01,15,33,-37.10
2022,02,01,15,34,-37.10
2022,02,01,15,35,-37.10
2022,02,01,15,36,-37.10
2022,02,01,15,37,-37.20
2022,02,01,15,38,-37.20
2022,02,01,15,39,-37.20
2022,02,01,15,40,-37.20
2022,02,01,15,41,-37.20
2022,02,01,15,42,-37.20
2022,02,01,15,43,-37.20
2022,02,01,15,44,-37.20
2022,02,01,15,45,-37.20
2022,02,01,15,46,-37.30
2022,02,01,15,47,-37.30
2022,02,01,15,48,-37.30
2022,02,01,15,49,-37.30
2022,02,01,15,50,-37.30
2022,02,01,15,51,-37.30
2022,02,01,15,52,-37.30
2022,02,01,15,53,-37.30
2022,02,01,15,54,-37.40
2022,02,01,15,55,-37.40
2022,02,01,15,56,-37.40
2022,02,01,15,57,-37.40
2022,02,01,15,58,-37.40
2022,02,01,15,59,-37.40
2022,02,01,16,00,-37.40
2022,02,01,16,01,-37.40
2022,02,01,16,02,-37.40
2022,02,01,16,03,-37.40
2022,02,01,16,04,-37.40
2022,02,01,16,05,-37.40
2022,02,01,16,06,-37.40
2022,02,01,16,07,-37.30
2022,02,01,16,08,-37.30
2022,02,01,16,09,-37.30
2022,02,01,16,10,-37.30
2022,02,01,16,11,-37.30
2022,02,01,16,12,-37.30
2022,02,01,16,13,-37.30
2022,02,01,16,14,-37.30
2022,02,01,16,15,-37.30
2022,02,01,16,16,-37.30
2022,02,01,16,17,-37.30
2022,02,01,16,18,-37.30
2022,02,01,16,19,-37.30
2022,02,01,16,20,-37.30
2022,02,01,16,21,-37.30
2022,02,01,16,22,-37.30
2022,02,01,16,23,-37.30
2022,02,01,16,24,-37.30
2022,02,01,16,25,-37.30
2022,02,01,16,26,-37.30
2022,02,01,16,27,-37.20
2022,02,01,16,28,-37.30
2022,02,01,16,29,-37.30
2022,02,01,16,30,-37.30
2022,02,01,16,31,-37.40
2022,02,01,16,32,-37.40
2022,02,01,16,33,-37.40
2022,02,01,16,34,-37.40
2022,02,01,16,35,-37.50
2022,02,01,16,36,-37.50
2022,02,01,16,37,-37.50
2022,02,01,16,38,-37.50
2022,02,01,16,39,-37.60
2022,02,01,16,40,-37.60
2022,02,01,16,41,-37.60
2022,02,01,16,42,-37.60
2022,02,01,16,43,-37.60
2022,02,01,16,44,-37.70
2022,02,01,16,45,-37.70
2022,02,01,16,46,-37.70
2022,02,01,16,47,-37.70
2022,02,01,16,48,-37.70
2022,02,01,16,49,-37.70
2022,02,01,16,50,-37.70
2022,02,01,16,51,-37.70
2022,02,01,16,52,-37.70
2022,02,01,16,53,-37.70
2022,02,01,16,54,-37.70
2022,02,01,16,55,-37.70
2022,02,01,16,56,-37.70
2022,02,01,16,57,-37.70
2022,02,01,16,58,-37.70
2022,02,01,16,59,-37.70
2022,02,01,17,00,-37.60
2022,02,01,17,01,-37.60
2022,02,01,17,02,-37.60
2022,02,01,17,03,-37.60
2022,02,01,17,04,-37.60
2022,02,01,17,05,-37.60
2022,02,01,17,06,-37.60
2022,02,01,17,07,-37.60
2022,02,01,17,08,-37.60
2022,02,01,17,09,-37.60
2022,02,01,17,10,-37.60
2022,02,01,17,11,-37.60
2022,02,01,17,12,-37.60
2022,02,01,17,13,-37.60
2022,02,01,17,14,-37.60
2022,02,01,17,15,-37.60
2022,02,01,17,16,-37.70
2022,02,01,17,17,-37.70
2022,02,01,17,18,-37.70
2022,02,01,17,19,-37.70
2022,02,01,17,20,-37.70
2022,02,01,17,21,-37.70
2022,02,01,17,22,-37.80
2022,02,01,17,23,-37.80
2022,02,01,17,24,-37.80
2022,02,01,17,25,-37.80
2022,02,01,17,26,-37.80
2022,02,01,17,27,-37.80
2022,02,01,17,28,-37.80
2022,02,01,17,29,-37.80
2022,02,01,17,30,-37.80
2022,02,01,17,31,-37.80
2022,02,01,17,32,-37.80
2022,02,01,17,33,-37.80
2022,02,01,17,34,-37.80
2022,02,01,17,35,-37.80
2022,02,01,17,36,-37.90
2022,02,01,17,37,-37.90
2022,02,01,17,38,-38.00
2022,02,01,17,39,-38.00
2022,02,01,17,40,-38.00
2022,02,01,17,41,-38.10
2022,02,01,17,42,-38.10
2022,02,01,17,43,-38.10
2022,02,01,17,44,-38.20
2022,02,01,17,45,-38.20
2022,02,01,17,46,-38.20
2022,02,01,17,47,-38.20
2022,02,01,17,48,-38.20
2022,02,01,17,49,-38.20
2022,02,01,17,50,-38.30
2022,02,01,17,51,-38.30
2022,02,01,17,52,-38.30
2022,02,01,17,53,-38.30
2022,02,01,17,54,-38.30
2022,02,01,17,55,-38.30
2022,02,01,17,56,-38.30
2022,02,01,17,57,-38.40
2022,02,01,17,58,-38.40
2022,02,01,17,59,-38.40
2022,02,01,18,00,-38.40
2022,02,01,18,01,-38.40
2022,02,01,18,02,-38.40
2022,02,01,18,03,-38.40
2022,02,01,18,04,-38.40
2022,02,01,18,05,-38.40
2022,02,01,18,06,-38.40
2022,02,01,18,07,-38.40
2022,02,01,18,08,-38.40
2022,02,01,18,09,-38.50
2022,02,01,18,10,-38.50
2022,02,01,18,11,-38.50
2022,02,01,18,12,-38.60
2022,02,01,18,13,-38.60
2022,02,01,18,14,-38.70
2022,02,01,18,15,-38.70
2022,02,01,18,16,-38.70
2022,02,01,18,17,-38.80
2022,02,01,18,18,-38.80
2022,02,01,18,19,-38.80
2022,02,01,18,20,-38.80
2022,02,01,18,21,-38.80
2022,02,01,18,22,-38.80
2022,02,01,18,23,-38.90
2022,02,01,18,24,-38.90
2022,02,01,18,25,-38.90
2022,02,01,18,26,-38.90
2022,02,01,18,27,-38.90
2022,02,01,18,28,-38.80
2022,02,01,18,29,-38.80
2022,02,01,18,30,-38.80
2022,02,01,18,31,-38.90
2022,02,01,18,32,-38.90
2022,02,01,18,33,-38.90
2022,02,01,18,34,-38.90
2022,02,01,18,35,-38.90
2022,02,01,18,36,-38.90
2022,02,01,18,37,-38.90
2022,02,01,18,38,-38.90
2022,02,01,18,39,-38.90
2022,02,01,18,40,-38.80
2022,02,01,18,41,-38.80
2022,02,01,18,42,-38.80
2022,02,01,18,43,-38.80
2022,02,01,18,44,-38.90
2022,02,01,18,45,-38.90
2022,02,01,18,46,-38.90
2022,02,01,18,47,-38.90
2022,02,01,18,48,-38.90
2022,02,01,18,49,-38.90
2022,02,01,18,50,-38.90
2022,02,01,18,51,-39.00
2022,02,01,18,52,-39.00
2022,02,01,18,53,-39.00
2022,02,01,18,54,-39.00
2022,02,01,18,55,-39.00
2022,02,01,18,56,-39.00
2022,02,01,18,57,-38.90
2022,02,01,18,58,-38.90
2022,02,01,18,59,-38.90
2022,02,01,19,00,-38.90
2022,02,01,19,01,-38.90
2022,02,01,19,02,-38.90
2022,02,01,19,03,-38.90
2022,02,01,19,04,-38.90
2022,02,01,19,05,-38.90
2022,02,01,19,06,-39.00
2022,02,01,19,07,-39.00
2022,02,01,19,08,-39.10
2022,02,01,19,09,-39.20
2022,02,01,19,10,-39.30
2022,02,01,19,11,-39.40
2022,02,01,19,12,-39.50
2022,02,01,19,13,-39.60
2022,02,01,19,14,-39.60
2022,02,01,19,15,-39.60
2022,02,01,19,16,-39.60
2022,02,01,19,17,-39.60
2022,02,01,19,18,-39.60
2022,02,01,19,19,-39.60
2022,02,01,19,20,-39.60
2022,02,01,19,21,-39.60
2022,02,01,19,22,-39.60
2022,02,01,19,23,-39.60
2022,02,01,19,24,-39.60
2022,02,01,19,25,-39.60
2022,02,01,19,26,-39.60
2022,02,01,19,27,-39.60
2022,02,01,19,28,-39.60
2022,02,01,19,29,-39.60
2022,02,01,19,30,-39.60
2022,02,01,20,39,-39.30
2022,02,01,20,40,-39.30
2022,02,01,20,41,-39.30
2022,02,01,20,42,-39.30
2022,02,01,20,43,-39.30
2022,02,01,20,44,-39.30
2022,02,01,20,45,-39.30
2022,02,01,20,46,-39.30
2022,02,01,20,47,-39.30
2022,02,01,20,48,-39.30
2022,02,01,20,49,-39.30
2022,02,01,20,50,-39.30
2022,02,01,20,51,-39.30
2022,02,01,20,52,-39.30
2022,02,01,20,53,-39.30
2022,02,01,20,54,-39.30
2022,02,01,20,55,-39.30
2022,02,01,20,56,-39.30
2022,02,01,20,57,-39.30
2022,02,01,20,58,-39.20
2022,02,01,20,59,-39.20
2022,02,01,21,00,-39.20
2022,02,01,21,01,-39.10
2022,02,01,21,02,-39.10
2022,02,01,21,03,-39.00
2022,02,01,21,04,-39.00
2022,02,01,21,05,-39.00
2022,02,01,21,06,-38.90
2022,02,01,21,07,-38.90
2022,02,01,21,08,-38.80
2022,02,01,21,09,-38.80
2022,02,01,21,10,-38.80
2022,02,01,21,11,-38.80
2022,02,01,21,12,-38.80
2022,02,01,21,13,-38.80
2022,02,01,21,14,-38.80
2022,02,01,21,15,-38.80
2022,02,01,21,16,-38.80
2022,02,01,21,17,-38.80
2022,02,01,21,18,-38.80
2022,02,01,21,19,-38.80
2022,02,01,21,20,-38.80
2022,02,01,21,21,-38.80
2022,02,01,21,22,-38.80
2022,02,01,21,23,-38.80
2022,02,01,21,24,-38.80
2022,02,01,21,25,-38.80
2022,02,01,21,26,-38.80
2022,02,01,21,27,-38.80
2022,02,01,21,28,-38.80
2022,02,01,21,29,-38.80
2022,02,01,21,30,-38.80
2022,02,01,21,31,-38.90
2022,02,01,21,32,-38.90
2022,02,01,21,33,-38.90
2022,02,01,21,34,-38.90
2022,02,01,21,35,-39.00
2022,02,01,21,36,-39.00
2022,02,01,21,37,-39.00
2022,02,01,21,38,-39.00
2022,02,01,21,39,-39.10
2022,02,01,21,40,-39.10
2022,02,01,21,41,-39.10
2022,02,01,21,42,-39.20
2022,02,01,21,43,-39.20
2022,02,01,21,44,-39.30
2022,02,01,21,45,-39.40
2022,02,01,21,46,-39.40
2022,02,01,21,47,-39.50
2022,02,01,21,48,-39.60
2022,02,01,21,49,-39.60
2022,02,01,21,50,-39.60
2022,02,01,21,51,-39.60
2022,02,01,21,52,-39.60
2022,02,01,21,53,-39.60
2022,02,01,21,54,-39.60
2022,02,01,21,55,-39.60
2022,02,01,21,56,-39.60
2022,02,01,21,57,-39.60
2022,02,01,21,58,-39.60
2022,02,01,21,59,-39.60
2022,02,01,22,00,-39.60
2022,02,01,22,01,-39.60
2022,02,01,22,02,-39.60
2022,02,01,22,03,-39.60
2022,02,01,22,04,-39.60
2022,02,01,22,05,-39.60
2022,02,01,22,06,-39.60
2022,02,01,22,07,-39.60
2022,02,01,22,08,-39.60
2022,02,01,22,09,-39.60
2022,02,01,22,10,-39.60
2022,02,01,22,11,-39.60
2022,02,01,22,12,-39.60
2022,02,01,22,13,-39.60
2022,02,01,22,14,-39.60
2022,02,01,22,15,-39.60
2022,02,01,22,16,-39.60
2022,02,01,22,17,-39.60
2022,02,01,22,18,-39.60
2022,02,01,22,19,-39.60
2022,02,01,22,20,-39.60
2022,02,01,22,21,-39.60
2022,02,01,22,22,-39.60
2022,02,01,22,23,-39.60
2022,02,01,22,24,-39.60
2022,02,01,22,25,-39.60
2022,02,01,22,26,-39.60
2022,02,01,22,27,-39.60
2022,02,01,22,28,-39.60
2022,02,01,22,29,-39.60
2022,02,01,22,30,-39.60
2022,02,01,22,31,-39.60
2022,02,01,22,32,-39.60
2022,02,01,22,33,-39.60
2022,02,01,22,34,-39.60
2022,02,01,22,35,-39.60
2022,02,01,22,36,-39.60
2022,02,01,22,37,-39.60
2022,02,01,22,38,-39.60
2022,02,01,22,39,-39.60
2022,02,01,22,40,-39.60
2022,02,01,22,41,-39.60
2022,02,01,22,42,-39.60
2022,02,01,22,43,-39.60
2022,02,01,22,44,-39.60
2022,02,01,22,45,-39.60
2022,02,01,22,46,-39.60
2022,02,01,22,47,-39.60
2022,02,01,22,48,-39.60
2022,02,01,22,49,-39.60
2022,02,01,22,50,-39.60
2022,02,01,22,51,-39.60
2022,02,01,22,52,-39.60
2022,02,01,22,53,-39.60
2022,02,01,22,54,-39.60
2022,02,01,22,55,-39.60
2022,02,01,22,56,-39.60
2022,02,01,22,57,-39.60
2022,02,01,22,58,-39.60
2022,02,01,23,32,-39.60
2022,02,01,23,33,-39.60
2022,02,01,23,34,-39.60
2022,02,01,23,35,-39.60
2022,02,01,23,36,-39.60
2022,02,01,23,37,-39.60
2022,02,01,23,38,-39.60
2022,02,01,23,39,-39.60
2022,02,01,23,40,-39.60
2022,02,01,23,41,-39.60
2022,02,01,23,42,-39.60
2022,02,01,23,43,-39.60
2022,02,01,23,44,-39.60
2022,02,01,23,45,-39.60
2022,02,01,23,46,-39.60
2022,02,01,23,47,-39.60
2022,02,01,23,48,-39.60
2022,02,01,23,49,-39.60
2022,02,01,23,50,-39.60
2022,02,01,23,51,-39.60
2022,02,01,23,52,-39.60
2022,02,01,23,53,-39.60
2022,02,01,23,54,-39.60
2022,02,01,23,55,-39.60
2022,02,01,23,56,-39.60
2022,02,01,23,57,-39.60
2022,02,01,23,58,-39.60
2022,02,01,23,59,-39.60
